EW4141 Baiting Hollow NY US current weather conditions

sailwx.info

Wind from 163 at 6 knots gusting 13

Air temperature 23.3° C
Dewpoint 20.9° C

Last reported at 2020-Jul-12 02:05 UTC.
Time now 2020-Jul-12 02:59 UTC

Location: N 40°59' W 072°43'.
View on Google Maps.

See reports from other nearby stations

  
Tides and Currents Weather Stations Pressure Air Temp Water Temp Dewpoint Dewpoint Depression Visibility Wind Speed Wind Dir Waves Ship Positions
date/time (UTC)wind fromknots sea level pressurealtimeterstation pressurevisibilityair tempwater tempwave heightnotes
2020-Jul-12 02:40 169 5 gusting 11 23.3
2020-Jul-12 02:35 168 5 gusting 11 23.3
2020-Jul-12 02:30 167 5 gusting 11 23.3
2020-Jul-12 02:25 170 5 gusting 10 23.3
2020-Jul-12 02:20 173 5 gusting 12 23.3
2020-Jul-12 02:15 168 4 gusting 12 23.3
2020-Jul-12 02:10 162 5 gusting 13 23.3
2020-Jul-12 02:05 163 6 gusting 13 23.3
2020-Jul-12 02:00 167 5 gusting 12 23.3
2020-Jul-12 01:55 174 5 gusting 12 23.3
2020-Jul-12 01:50 177 5 gusting 11 23.3
2020-Jul-12 01:45 173 5 gusting 11 23.3
2020-Jul-12 01:40 177 5 gusting 13 23.3
2020-Jul-12 01:35 179 5 gusting 13 23.3
2020-Jul-12 01:30 178 6 gusting 14 23.3
2020-Jul-12 01:25 193 5 gusting 14 23.3
2020-Jul-12 01:20 194 4 gusting 11 23.3
2020-Jul-12 01:15 193 4 gusting 11 23.9
2020-Jul-12 01:10 200 5 gusting 11 23.9
2020-Jul-12 01:05 191 6 gusting 19 23.9
2020-Jul-12 00:59 191 5 gusting 19 23.9
2020-Jul-12 00:55 194 4 gusting 10 23.9
2020-Jul-12 00:50 189 6 gusting 16 23.9
2020-Jul-12 00:45 188 6 gusting 16 23.9
2020-Jul-12 00:40 185 4 gusting 13 23.9
2020-Jul-12 00:35 176 4 gusting 14 24.4
2020-Jul-12 00:30 179 5 gusting 14 23.9
2020-Jul-12 00:25 177 6 gusting 14 24.4
2020-Jul-12 00:20 174 6 gusting 13 24.4
2020-Jul-12 00:15 179 5 gusting 14 24.4
2020-Jul-12 00:10 174 5 gusting 14 24.4
2020-Jul-12 00:05 168 5 gusting 15 24.4
2020-Jul-12 00:00 129 4 gusting 17 23.9
2020-Jul-11 23:55 162 6 gusting 17 24.4
2020-Jul-11 23:50 158 6 gusting 13 24.4
2020-Jul-11 23:45 162 6 gusting 14 24.4
2020-Jul-11 23:40 167 5 gusting 14 24.4
2020-Jul-11 23:35 166 5 gusting 12 24.4
2020-Jul-11 23:30 168 5 gusting 12 24.4
2020-Jul-11 23:25 167 6 gusting 14 24.4
2020-Jul-11 23:19 166 6 gusting 13 24.4
2020-Jul-11 23:15 169 6 gusting 14 24.4
2020-Jul-11 23:10 162 6 gusting 14 24.4
2020-Jul-11 23:05 161 6 gusting 14 24.4
2020-Jul-11 23:00 165 5 gusting 12 24.4
2020-Jul-11 22:55 170 5 gusting 13 24.4
2020-Jul-11 22:50 166 5 gusting 15 24.4
2020-Jul-11 22:45 162 6 gusting 15 24.4
2020-Jul-11 22:40 165 6 gusting 16 24.4
2020-Jul-11 22:35 160 5 gusting 16 24.4
2020-Jul-11 22:30 155 5 gusting 15 24.4
2020-Jul-11 22:23 154 4 gusting 15 24.4
2020-Jul-11 22:20 156 5 gusting 13 24.4
2020-Jul-11 22:15 158 6 gusting 13 24.4
2020-Jul-11 22:02 155 4 gusting 13 25.0
2020-Jul-11 22:00 155 4 gusting 11 25.0
2020-Jul-11 21:55 163 5 gusting 13 25.0
2020-Jul-11 21:50 162 5 gusting 13 25.0
2020-Jul-11 21:45 163 4 gusting 16 25.0
2020-Jul-11 21:40 160 5 gusting 16 25.0
2020-Jul-11 21:35 157 5 gusting 12 25.0
2020-Jul-11 21:30 154 5 gusting 13 25.6
2020-Jul-11 21:25 153 5 gusting 13 25.0
2020-Jul-11 21:20 159 5 gusting 13 25.6
2020-Jul-11 21:15 168 5 gusting 13 25.6
2020-Jul-11 21:10 162 5 gusting 13 25.6
2020-Jul-11 21:05 158 5 gusting 15 25.6
2020-Jul-11 21:00 164 6 gusting 15 25.6
2020-Jul-11 20:55 163 6 gusting 13 25.6
2020-Jul-11 20:50 155 4 gusting 13 25.6
2020-Jul-11 20:45 157 5 gusting 15 25.6
2020-Jul-11 20:40 163 6 gusting 15 25.6
2020-Jul-11 20:35 154 4 gusting 13 25.6
2020-Jul-11 20:30 154 4 gusting 12 25.6
2020-Jul-11 20:25 153 3 gusting 11 25.6
2020-Jul-11 20:20 158 3 gusting 10 25.6
2020-Jul-11 20:15 160 4 gusting 10 26.1
2020-Jul-11 20:10 168 2 gusting 8 26.1
2020-Jul-11 20:05 174 4 gusting 9 26.1
2020-Jul-11 20:00 194 5 gusting 12 26.1
2020-Jul-11 19:55 160 5 gusting 12 26.1
2020-Jul-11 19:50 159 5 gusting 13 26.7
2020-Jul-11 19:45 160 5 gusting 13 26.7
2020-Jul-11 19:40 158 5 gusting 13 26.7
2020-Jul-11 19:35 162 5 gusting 13 26.7
2020-Jul-11 19:30 163 6 gusting 13 27.2
2020-Jul-11 19:25 163 6 gusting 14 27.2
2020-Jul-11 19:20 157 6 gusting 14 27.2
2020-Jul-11 19:15 151 6 gusting 14 28.3
2020-Jul-11 19:10 148 6 gusting 15 28.3
2020-Jul-11 19:05 151 6 gusting 15 28.3
2020-Jul-11 19:00 153 7 gusting 13 28.3
2020-Jul-11 18:55 152 7 gusting 13 28.3
2020-Jul-11 18:50 153 7 gusting 14 28.3
2020-Jul-11 18:45 154 8 gusting 14 28.3
2020-Jul-11 18:40 149 6 gusting 13 28.3
2020-Jul-11 18:35 149 5 gusting 13 28.3
2020-Jul-11 18:30 159 5 gusting 13 27.8
2020-Jul-11 18:25 157 6 gusting 14 27.8
2020-Jul-11 18:20 158 6 gusting 14 27.8
2020-Jul-11 18:15 157 5 gusting 13 27.8
2020-Jul-11 18:10 152 6 gusting 13 27.8
2020-Jul-11 18:05 153 6 gusting 13 27.8
2020-Jul-11 18:00 156 6 gusting 13 27.8
2020-Jul-11 17:55 158 6 gusting 14 27.8
2020-Jul-11 17:50 167 5 gusting 14 27.8
2020-Jul-11 17:45 167 4 gusting 11 28.3
2020-Jul-11 17:40 153 4 gusting 11 28.3
2020-Jul-11 17:35 160 4 gusting 11 28.3
2020-Jul-11 17:30 141 6 gusting 13 27.8
2020-Jul-11 17:25 164 5 gusting 12 28.3
2020-Jul-11 17:20 165 6 gusting 13 28.3
2020-Jul-11 17:15 159 6 gusting 13 28.3
2020-Jul-11 17:10 149 6 gusting 15 28.3
2020-Jul-11 17:05 155 6 gusting 15 28.3
2020-Jul-11 17:00 163 5 gusting 13 27.8
2020-Jul-11 16:55 171 4 gusting 11 27.8
2020-Jul-11 16:50 186 4 gusting 10 27.8
2020-Jul-11 16:45 181 4 gusting 9 27.8
2020-Jul-11 16:40 186 5 gusting 13 27.8
2020-Jul-11 16:35 186 4 gusting 13 27.2
2020-Jul-11 16:30 174 3 gusting 10 27.2
2020-Jul-11 16:25 174 4 gusting 13 27.2
2020-Jul-11 16:20 167 4 gusting 13 27.2
2020-Jul-11 16:15 166 3 gusting 11 27.2
2020-Jul-11 16:06 173 4 gusting 12 27.2
2020-Jul-11 16:05 172 5 gusting 12 27.2
2020-Jul-11 16:00 172 6 gusting 14 27.2
2020-Jul-11 15:55 167 5 gusting 14 27.2
2020-Jul-11 15:50 160 3 gusting 12 27.2
2020-Jul-11 15:45 175 4 gusting 10 27.2
2020-Jul-11 15:40 171 5 gusting 10 27.2
2020-Jul-11 15:35 164 4 gusting 11 27.2
2020-Jul-11 15:30 165 5 gusting 11 26.7
2020-Jul-11 15:25 171 5 gusting 12 26.7
2020-Jul-11 15:20 181 5 gusting 12 26.7
2020-Jul-11 15:15 194 4 gusting 10 26.7
2020-Jul-11 15:10 201 4 gusting 11 26.7
2020-Jul-11 15:05 196 3 gusting 11 26.7
2020-Jul-11 15:00 225 1 gusting 8 26.1
2020-Jul-11 14:55 186 4 gusting 10 26.1
2020-Jul-11 14:50 188 4 gusting 10 26.1
2020-Jul-11 14:45 189 4 gusting 10 26.1
2020-Jul-11 14:40 185 4 gusting 11 26.1
2020-Jul-11 14:35 178 3 gusting 11 26.1
2020-Jul-11 14:30 184 3 gusting 10 25.6
2020-Jul-11 14:25 189 4 gusting 13 25.6
2020-Jul-11 14:20 186 5 gusting 13 25.6
2020-Jul-11 14:15 184 4 gusting 10 25.0
2020-Jul-11 14:10 184 3 gusting 10 25.0
2020-Jul-11 14:05 181 5 gusting 11 25.0
2020-Jul-11 14:00 177 4 gusting 11 25.0
2020-Jul-11 13:55 182 3 gusting 11 24.4
2020-Jul-11 13:50 190 4 gusting 11 24.4
2020-Jul-11 13:45 192 5 gusting 13 24.4
2020-Jul-11 13:40 191 4 gusting 13 24.4
2020-Jul-11 13:35 192 3 gusting 12 24.4
2020-Jul-11 13:30 188 3 gusting 9 24.4
2020-Jul-11 13:25 189 4 gusting 10 23.9
2020-Jul-11 13:20 191 3 gusting 10 23.9
2020-Jul-11 13:15 181 4 gusting 10 23.9
2020-Jul-11 13:10 173 4 gusting 14 23.9
2020-Jul-11 13:05 167 4 gusting 14 23.9
2020-Jul-11 13:00 166 5 gusting 11 23.9
2020-Jul-11 12:55 167 5 gusting 11 23.9
2020-Jul-11 12:50 172 5 gusting 13 23.9
2020-Jul-11 12:45 170 3 gusting 13 23.9
2020-Jul-11 12:40 167 2 gusting 8 23.9
2020-Jul-11 12:35 172 3 gusting 9 23.9
2020-Jul-11 12:30 172 4 gusting 9 23.3
2020-Jul-11 12:25 182 5 gusting 13 23.3
2020-Jul-11 12:20 182 5 gusting 13 23.3
2020-Jul-11 12:15 172 4 gusting 11 23.3
2020-Jul-11 12:10 173 4 gusting 10 23.3
2020-Jul-11 12:05 170 5 gusting 10 23.3
2020-Jul-11 12:00 164 5 gusting 13 23.3
2020-Jul-11 11:55 170 5 gusting 13 23.3
2020-Jul-11 11:50 171 5 gusting 11 23.3
2020-Jul-11 11:45 162 6 gusting 14 23.3
2020-Jul-11 11:40 162 6 gusting 14 23.3
2020-Jul-11 11:35 162 5 gusting 13 23.3
2020-Jul-11 11:30 163 4 gusting 13 23.3
2020-Jul-11 11:25 163 4 gusting 12 23.3
2020-Jul-11 11:20 162 4 gusting 11 23.3
2020-Jul-11 11:15 164 4 gusting 11 23.3
2020-Jul-11 11:10 171 5 gusting 9 22.8
2020-Jul-11 11:05 181 5 gusting 13 22.8
2020-Jul-11 11:00 182 4 gusting 13 22.8
2020-Jul-11 10:55 177 4 gusting 11 22.8
2020-Jul-11 10:50 178 5 gusting 11 22.8
2020-Jul-11 10:45 184 5 gusting 11 22.8
2020-Jul-11 10:40 188 4 gusting 11 22.8
2020-Jul-11 10:35 192 4 gusting 11 22.8
2020-Jul-11 10:30 192 5 gusting 15 22.8
2020-Jul-11 10:25 190 5 gusting 15 22.8
2020-Jul-11 10:20 184 5 gusting 12 22.8
2020-Jul-11 10:15 175 5 gusting 12 22.8
2020-Jul-11 10:10 171 5 gusting 11 22.8
2020-Jul-11 10:05 174 6 gusting 13 22.8
2020-Jul-11 10:00 174 6 gusting 13 22.8
2020-Jul-11 09:55 173 6 gusting 15 22.8
2020-Jul-11 09:50 178 5 gusting 17 22.8
2020-Jul-11 09:45 158 5 gusting 17 22.2
2020-Jul-11 09:40 177 5 gusting 11 22.8
2020-Jul-11 09:35 175 6 gusting 16 22.8
2020-Jul-11 09:30 179 6 gusting 16 22.8
2020-Jul-11 09:25 182 6 gusting 13 22.8
2020-Jul-11 09:20 175 6 gusting 11 22.8
2020-Jul-11 09:15 172 6 gusting 19 22.8
2020-Jul-11 09:10 166 6 gusting 19 22.2
2020-Jul-11 09:05 164 6 gusting 14 22.2
2020-Jul-11 09:00 170 6 gusting 14 22.2
2020-Jul-11 08:55 168 6 gusting 17 22.2
2020-Jul-11 08:50 158 5 gusting 17 22.2
2020-Jul-11 08:45 160 5 gusting 17 22.2
2020-Jul-11 08:40 170 6 gusting 14 22.2
2020-Jul-11 08:35 172 6 gusting 15 22.2
2020-Jul-11 08:30 166 6 gusting 15 22.2
2020-Jul-11 08:25 163 5 gusting 14 22.8
2020-Jul-11 08:20 162 5 gusting 13 22.8
2020-Jul-11 08:15 162 6 gusting 15 22.8
2020-Jul-11 08:10 164 6 gusting 15 22.8
2020-Jul-11 08:05 163 6 gusting 13 22.8
2020-Jul-11 08:00 159 6 gusting 14 22.8
2020-Jul-11 07:55 166 6 gusting 14 22.8
2020-Jul-11 07:50 161 6 gusting 13 22.8
2020-Jul-11 07:45 151 6 gusting 13 22.8
2020-Jul-11 07:40 161 5 gusting 13 22.8
2020-Jul-11 07:35 174 4 gusting 13 22.8
2020-Jul-11 07:30 174 4 gusting 11 22.8
2020-Jul-11 07:25 169 4 gusting 15 22.8
2020-Jul-11 07:20 170 5 gusting 15 22.8
2020-Jul-11 07:15 174 6 gusting 14 22.8
2020-Jul-11 07:10 176 5 gusting 14 22.8
2020-Jul-11 07:05 176 6 gusting 16 22.8
2020-Jul-11 07:00 175 6 gusting 16 22.8
2020-Jul-11 06:55 166 5 gusting 14 22.8
2020-Jul-11 06:50 158 4 gusting 12 22.8
2020-Jul-11 06:45 165 5 gusting 11 22.8
2020-Jul-11 06:40 163 6 gusting 13 22.8
2020-Jul-11 06:35 163 6 gusting 13 22.8
2020-Jul-11 06:30 161 5 gusting 15 22.8
2020-Jul-11 06:25 157 5 gusting 15 22.8
2020-Jul-11 06:20 161 6 gusting 12 22.8
2020-Jul-11 06:15 166 6 gusting 14 22.8
2020-Jul-11 06:10 161 6 gusting 14 22.8
2020-Jul-11 06:05 167 5 gusting 16 22.8
2020-Jul-11 06:00 175 5 gusting 16 22.8
2020-Jul-11 05:55 167 5 gusting 16 22.8
2020-Jul-11 05:50 165 6 gusting 16 22.8
2020-Jul-11 05:45 163 5 gusting 15 22.8
2020-Jul-11 05:40 160 6 gusting 15 22.8
2020-Jul-11 05:35 157 6 gusting 15 22.8
2020-Jul-11 05:30 159 6 gusting 15 22.8
2020-Jul-11 05:25 164 6 gusting 19 22.8
2020-Jul-11 05:20 162 7 gusting 19 22.8
2020-Jul-11 05:15 159 6 gusting 15 22.8
2020-Jul-11 05:10 154 6 gusting 16 22.8
2020-Jul-11 05:05 147 6 gusting 16 22.8
2020-Jul-11 05:00 147 7 gusting 16 22.8
2020-Jul-11 04:55 151 7 gusting 20 22.8
2020-Jul-11 04:50 154 7 gusting 20 22.8
2020-Jul-11 04:45 155 7 gusting 17 22.8
2020-Jul-11 04:40 160 7 gusting 16 22.8
2020-Jul-11 04:35 157 6 gusting 16 22.8
2020-Jul-11 04:29 144 7 gusting 19 22.8
2020-Jul-11 04:25 144 7 gusting 19 22.8
2020-Jul-11 04:20 149 7 gusting 19 22.8
2020-Jul-11 04:15 148 6 gusting 17 22.8
2020-Jul-11 04:10 149 6 gusting 17 22.8
2020-Jul-11 04:05 155 7 gusting 18 22.8
2020-Jul-11 04:00 153 10 gusting 26 22.8
2020-Jul-11 03:55 152 9 gusting 26 22.8
2020-Jul-11 03:50 149 8 gusting 21 22.8
2020-Jul-11 03:45 149 9 gusting 21 22.8
2020-Jul-11 03:40 148 9 gusting 19 22.8
2020-Jul-11 03:35 143 9 gusting 19 22.8
2020-Jul-11 03:30 143 9 gusting 17 22.8
2020-Jul-11 03:25 144 8 gusting 20 22.8
2020-Jul-11 03:20 143 10 gusting 21 22.8
2020-Jul-11 03:15 145 10 gusting 25 22.8
2020-Jul-11 03:10 144 9 gusting 25 22.8
2020-Jul-11 03:05 139 7 gusting 18 22.8
2020-Jul-11 03:00 136 7 gusting 19 22.8
2020-Jul-11 02:55 141 8 gusting 19 22.8
2020-Jul-11 02:50 144 9 gusting 20 22.8
2020-Jul-11 02:45 140 10 gusting 20 22.8
2020-Jul-11 02:40 138 9 gusting 20 22.8
2020-Jul-11 02:35 142 8 gusting 20 22.8
2020-Jul-11 02:30 144 9 gusting 19 22.8
2020-Jul-11 02:25 143 9 gusting 23 22.8
2020-Jul-11 02:20 145 8 gusting 23 23.3
2020-Jul-11 02:15 140 10 gusting 22 23.3
2020-Jul-11 02:10 134 12 gusting 22 23.3
2020-Jul-11 02:05 133 10 gusting 21 23.3
2020-Jul-11 02:00 139 10 gusting 20 23.3
2020-Jul-11 01:55 140 10 gusting 20 23.3
2020-Jul-11 01:50 135 10 gusting 19 23.3
2020-Jul-11 01:45 127 8 gusting 20 22.8
2020-Jul-11 01:40 132 10 gusting 18 23.3
2020-Jul-11 01:35 133 11 gusting 24 23.3
2020-Jul-11 01:30 135 11 gusting 24 23.3
2020-Jul-11 01:25 135 11 gusting 21 23.3
2020-Jul-11 01:20 135 13 gusting 21 23.3
2020-Jul-11 01:15 133 13 gusting 24 23.3
2020-Jul-11 01:10 133 12 gusting 24 23.3
2020-Jul-11 01:05 132 11 gusting 22 23.3
2020-Jul-11 01:00 132 11 gusting 23 23.3
2020-Jul-11 00:55 133 11 gusting 23 23.3
2020-Jul-11 00:50 131 11 gusting 20 23.3
2020-Jul-11 00:45 129 11 gusting 24 23.3
2020-Jul-11 00:40 131 11 gusting 24 23.3
2020-Jul-11 00:35 134 12 gusting 19 23.3
2020-Jul-11 00:30 135 12 gusting 19 23.3
2020-Jul-11 00:25 135 11 gusting 19 23.3
2020-Jul-11 00:20 132 12 gusting 21 23.3
2020-Jul-11 00:15 129 11 gusting 21 23.3
2020-Jul-11 00:10 131 10 gusting 20 23.3
2020-Jul-11 00:05 131 11 gusting 24 23.3
2020-Jul-11 00:00 125 11 gusting 24 23.3
2020-Jul-10 23:55 130 12 gusting 26 23.3
2020-Jul-10 23:50 129 11 gusting 26 23.3
2020-Jul-10 23:45 130 10 gusting 26 23.9
2020-Jul-10 23:40 133 11 gusting 23 23.9
2020-Jul-10 23:35 128 12 gusting 26 23.9
2020-Jul-10 23:30 128 13 gusting 26 23.9
2020-Jul-10 23:24 133 13 gusting 22 23.9
2020-Jul-10 23:20 132 13 gusting 26 24.4
2020-Jul-10 23:15 131 13 gusting 26 24.4
2020-Jul-10 23:10 129 13 gusting 25 24.4
2020-Jul-10 23:05 129 13 gusting 29 24.4
2020-Jul-10 23:00 127 13 gusting 29 24.4
2020-Jul-10 22:55 126 13 gusting 25 24.4
2020-Jul-10 22:50 127 13 gusting 26 24.4
2020-Jul-10 22:45 125 14 gusting 27 24.4
2020-Jul-10 22:40 125 13 gusting 27 24.4
2020-Jul-10 22:35 123 13 gusting 31 24.4
2020-Jul-10 22:30 123 13 gusting 31 24.4
2020-Jul-10 22:25 122 13 gusting 25 24.4
2020-Jul-10 22:20 117 13 gusting 22 24.4
2020-Jul-10 22:15 114 13 gusting 23 24.4
2020-Jul-10 22:09 129 12 gusting 23 24.4
2020-Jul-10 22:05 132 12 gusting 21 24.4
2020-Jul-10 22:00 119 11 gusting 21 24.4
2020-Jul-10 21:54 118 12 gusting 26 24.4
2020-Jul-10 21:50 118 12 gusting 26 24.4
2020-Jul-10 21:45 115 11 gusting 22 24.4
2020-Jul-10 21:40 119 10 gusting 22 24.4
2020-Jul-10 21:35 123 10 gusting 20 24.4
2020-Jul-10 21:30 116 10 gusting 20 24.4
2020-Jul-10 21:25 109 11 gusting 24 24.4
2020-Jul-10 21:19 109 10 gusting 24 24.4
2020-Jul-10 21:12 113 11 gusting 19 24.4
2020-Jul-10 21:10 115 11 gusting 19 24.4
2020-Jul-10 21:05 111 11 gusting 19 24.4
2020-Jul-10 21:00 109 12 gusting 19 24.4
2020-Jul-10 20:55 110 12 gusting 19 24.4
2020-Jul-10 20:50 111 11 gusting 22 24.4
2020-Jul-10 20:44 113 11 gusting 22 24.4
2020-Jul-10 20:40 112 12 gusting 23 24.4
2020-Jul-10 20:35 114 12 gusting 23 24.4
2020-Jul-10 20:29 112 11 gusting 20 24.4
2020-Jul-10 20:25 113 11 gusting 20 24.4
2020-Jul-10 20:19 114 11 gusting 19 25.0
2020-Jul-10 20:15 114 12 gusting 25 25.0
2020-Jul-10 20:10 117 12 gusting 25 25.0
2020-Jul-10 20:04 119 10 gusting 21 25.0
2020-Jul-10 20:00 118 11 gusting 23 25.0
2020-Jul-10 19:55 113 12 gusting 24 24.4
2020-Jul-10 19:50 112 12 gusting 24 24.4
2020-Jul-10 19:45 112 11 gusting 21 24.4
2020-Jul-10 19:40 112 9 gusting 15 24.4
2020-Jul-10 19:35 112 9 gusting 19 24.4
2020-Jul-10 19:30 112 10 gusting 19 24.4
2020-Jul-10 19:25 117 10 gusting 19 24.4
2020-Jul-10 19:20 116 9 gusting 19 24.4
2020-Jul-10 18:18 116 6 gusting 13 23.9
2020-Jul-10 18:15 109 7 gusting 13 23.9
2020-Jul-10 18:04 104 7 gusting 13 23.9
2020-Jul-10 18:00 106 6 gusting 12 23.9
2020-Jul-10 17:55 109 6 gusting 12 23.9
2020-Jul-10 17:50 112 7 gusting 14 23.9
2020-Jul-10 17:45 114 8 gusting 19 23.9
2020-Jul-10 17:40 113 9 gusting 19 23.9
2020-Jul-10 17:35 109 9 gusting 19 23.9
2020-Jul-10 17:30 114 8 gusting 19 23.9
2020-Jul-10 17:25 118 8 gusting 14 23.9
2020-Jul-10 17:20 115 8 gusting 14 23.9
2020-Jul-10 17:15 117 8 gusting 15 23.9
2020-Jul-10 17:10 119 9 gusting 16 23.9
2020-Jul-10 17:05 117 9 gusting 16 23.9
2020-Jul-10 17:00 113 8 gusting 16 23.9
2020-Jul-10 16:55 111 8 gusting 18 23.9
2020-Jul-10 16:50 114 7 gusting 18 23.9
2020-Jul-10 16:45 116 6 gusting 16 23.9
2020-Jul-10 16:40 115 7 gusting 13 23.9
2020-Jul-10 16:35 109 6 gusting 13 23.9
2020-Jul-10 16:30 102 7 gusting 14 23.9
2020-Jul-10 16:25 108 7 gusting 14 23.9
2020-Jul-10 16:20 114 6 gusting 13 23.9
2020-Jul-10 16:14 112 6 gusting 15 23.9
2020-Jul-10 16:10 110 5 gusting 15 23.9
2020-Jul-10 16:05 101 5 gusting 10 23.9
2020-Jul-10 16:00 098 5 gusting 10 23.9
2020-Jul-10 15:55 098 5 gusting 10 23.3
2020-Jul-10 15:50 095 4 gusting 9 23.3
2020-Jul-10 15:45 082 5 gusting 9 23.3
2020-Jul-10 15:40 069 6 gusting 12 23.3
2020-Jul-10 15:35 063 6 gusting 12 23.3
2020-Jul-10 15:29 063 6 gusting 12 23.3
2020-Jul-10 15:25 061 6 gusting 10 23.3
2020-Jul-10 15:20 059 6 gusting 10 22.8
2020-Jul-10 15:15 054 6 gusting 11 22.8
2020-Jul-10 15:10 051 6 gusting 11 22.8
2020-Jul-10 15:05 054 6 gusting 10 22.8
2020-Jul-10 15:00 053 6 gusting 11 22.8
2020-Jul-10 14:55 050 6 gusting 11 22.8
2020-Jul-10 14:50 050 6 gusting 11 22.8
2020-Jul-10 14:45 029 6 gusting 11 22.8
2020-Jul-10 14:40 051 6 gusting 9 22.8
2020-Jul-10 14:35 054 5 gusting 9 22.8
2020-Jul-10 14:30 059 4 gusting 8 22.8
2020-Jul-10 14:25 062 4 gusting 9 22.8
2020-Jul-10 14:20 064 5 gusting 9 22.8
2020-Jul-10 14:15 063 6 gusting 10 22.8
2020-Jul-10 14:10 059 6 gusting 10 22.8
2020-Jul-10 14:05 059 5 gusting 10 22.8
2020-Jul-10 14:00 064 4 gusting 9 22.8
2020-Jul-10 13:55 059 5 gusting 10 22.8
2020-Jul-10 13:50 054 5 gusting 10 22.8
2020-Jul-10 13:45 043 3 gusting 7 22.8
2020-Jul-10 13:40 063 3 gusting 7 22.8
2020-Jul-10 13:35 065 3 gusting 8 22.8
2020-Jul-10 13:30 064 4 gusting 8 22.8
2020-Jul-10 13:25 064 4 gusting 7 22.8
2020-Jul-10 13:20 064 5 gusting 8 22.8
2020-Jul-10 13:15 044 4 gusting 8 22.8
2020-Jul-10 13:10 056 5 gusting 9 22.8
2020-Jul-10 13:05 055 4 gusting 7 22.8
2020-Jul-10 12:59 058 2 gusting 6 22.8
2020-Jul-10 12:55 061 2 gusting 5 22.8
2020-Jul-10 12:50 075 2 gusting 6 22.8
2020-Jul-10 12:45 077 3 gusting 6 22.8
2020-Jul-10 12:40 068 4 gusting 8 22.8
2020-Jul-10 12:35 063 4 gusting 8 22.8
2020-Jul-10 12:30 064 4 gusting 7 22.2
2020-Jul-10 12:25 063 3 gusting 7 22.2
2020-Jul-10 12:20 060 3 gusting 6 22.2
2020-Jul-10 12:15 068 3 gusting 7 22.2
2020-Jul-10 12:10 071 3 gusting 7 22.2
2020-Jul-10 12:05 066 3 gusting 6 22.2
2020-Jul-10 12:00 065 3 gusting 6 22.2
2020-Jul-10 11:55 062 3 gusting 6 22.2
2020-Jul-10 11:50 057 4 gusting 7 22.2
2020-Jul-10 11:45 049 3 gusting 9 22.2
2020-Jul-10 11:40 053 4 gusting 9 22.2
2020-Jul-10 11:35 055 3 gusting 6 22.2
2020-Jul-10 11:30 065 2 gusting 6 22.2
2020-Jul-10 11:25 090 1 gusting 4 22.2
2020-Jul-10 11:20 085 2 gusting 4 22.2
2020-Jul-10 11:15 083 2 gusting 6 22.2
2020-Jul-10 11:10 092 2 gusting 6 22.2
2020-Jul-10 11:05 091 3 gusting 7 22.2
2020-Jul-10 11:00 083 3 gusting 7 22.2
2020-Jul-10 10:55 081 4 gusting 9 22.2
2020-Jul-10 10:50 082 4 gusting 9 22.2
2020-Jul-10 10:45 075 5 gusting 9 22.2
2020-Jul-10 10:40 066 5 gusting 9 22.2
2020-Jul-10 10:35 063 4 gusting 9 22.2
2020-Jul-10 10:30 068 3 gusting 9 22.2
2020-Jul-10 10:25 074 3 gusting 8 22.2
2020-Jul-10 10:20 072 3 gusting 8 22.2
2020-Jul-10 10:15 069 2 gusting 7 22.2
2020-Jul-10 10:10 067 3 gusting 7 22.2
2020-Jul-10 10:05 068 3 gusting 7 22.8
2020-Jul-10 10:00 070 3 gusting 6 22.8
2020-Jul-10 09:55 064 4 gusting 7 22.8
2020-Jul-10 09:50 059 4 gusting 7 22.8
2020-Jul-10 09:45 060 3 gusting 7 22.8
2020-Jul-10 09:40 073 2 gusting 6 22.8
2020-Jul-10 09:35 093 1 gusting 3 22.8
2020-Jul-10 09:30 089 1 gusting 3 22.8
2020-Jul-10 09:25 072 1 gusting 3 22.8
2020-Jul-10 09:20 057 1 gusting 4 22.8
2020-Jul-10 09:15 053 2 gusting 5 22.8
2020-Jul-10 09:10 046 2 gusting 5 23.3
2020-Jul-10 09:05 041 1 gusting 3 23.3
2020-Jul-10 09:00 046 1 gusting 3 23.3
2020-Jul-10 08:55 051 1 gusting 4 23.3
2020-Jul-10 08:50 040 2 gusting 4 23.3
2020-Jul-10 08:45 044 2 gusting 4 23.3
2020-Jul-10 08:40 083 0 gusting 4 23.3
2020-Jul-10 08:35 133 0 gusting 3 23.3
2020-Jul-10 08:30 120 1 gusting 3 23.3
2020-Jul-10 08:25 109 1 gusting 4 23.3
2020-Jul-10 08:20 127 2 gusting 5 23.3
2020-Jul-10 08:15 128 1 gusting 5 23.3
2020-Jul-10 08:10 142 2 gusting 6 23.3
2020-Jul-10 08:05 137 2 gusting 6 23.3
2020-Jul-10 08:00 132 2 gusting 6 23.3
2020-Jul-10 07:55 131 2 gusting 6 23.3
2020-Jul-10 07:50 128 1 gusting 3 23.3
2020-Jul-10 07:45 128 0 gusting 3 23.3
2020-Jul-10 07:40 129 23.3
2020-Jul-10 07:35 128 0 gusting 1 23.3
2020-Jul-10 07:30 128 0 gusting 1 23.3
2020-Jul-10 07:25 128 0 gusting 1 23.3
2020-Jul-10 07:20 128 0 gusting 2 23.3
2020-Jul-10 07:15 129 1 gusting 3 23.3
2020-Jul-10 07:10 128 1 gusting 3 23.3
2020-Jul-10 07:05 127 1 gusting 3 23.3
2020-Jul-10 07:00 127 1 gusting 3 23.3
2020-Jul-10 06:55 129 1 gusting 3 23.3
2020-Jul-10 06:50 133 1 gusting 3 23.3
2020-Jul-10 06:45 128 2 gusting 4 23.3
2020-Jul-10 06:40 126 2 gusting 4 23.3
2020-Jul-10 06:35 128 2 gusting 8 23.3
2020-Jul-10 06:30 132 3 gusting 8 23.3
2020-Jul-10 06:25 136 3 gusting 6 23.3
2020-Jul-10 06:20 135 4 gusting 9 23.3
2020-Jul-10 06:15 134 4 gusting 9 23.3
2020-Jul-10 06:10 133 3 gusting 7 23.3
2020-Jul-10 06:05 133 3 gusting 6 23.3
2020-Jul-10 06:00 128 4 gusting 10 23.3
2020-Jul-10 05:55 136 4 gusting 9 23.3
2020-Jul-10 05:50 137 4 gusting 8 23.3
2020-Jul-10 05:45 142 3 gusting 6 23.3
2020-Jul-10 05:40 144 2 gusting 6 23.3
2020-Jul-10 05:35 140 3 gusting 6 23.3
2020-Jul-10 05:30 139 4 gusting 6 23.3
2020-Jul-10 05:25 140 4 gusting 6 23.3
2020-Jul-10 05:20 141 4 gusting 6 23.3
2020-Jul-10 05:15 140 4 gusting 6 23.3
2020-Jul-10 05:10 138 4 gusting 6 23.3
2020-Jul-10 05:05 139 3 gusting 6 23.3
2020-Jul-10 05:00 140 4 gusting 6 23.3
2020-Jul-10 04:55 141 4 gusting 6 23.3
2020-Jul-10 04:50 140 4 gusting 6 23.3
2020-Jul-10 04:45 141 5 gusting 9 23.3
2020-Jul-10 04:40 141 5 gusting 9 23.3
2020-Jul-10 04:35 139 4 gusting 7 23.3
2020-Jul-10 04:30 137 4 gusting 7 23.3
2020-Jul-10 04:25 136 4 gusting 7 23.3
2020-Jul-10 04:20 139 4 gusting 7 23.3
2020-Jul-10 04:15 139 4 gusting 6 23.3
2020-Jul-10 04:10 140 3 gusting 6 23.3
2020-Jul-10 04:05 142 3 gusting 6 23.3
2020-Jul-10 04:00 143 4 gusting 6 23.3
2020-Jul-10 03:55 143 4 gusting 8 23.3
2020-Jul-10 03:50 140 4 gusting 8 23.3
2020-Jul-10 03:45 140 4 gusting 7 23.3
2020-Jul-10 03:40 141 4 gusting 7 23.3
2020-Jul-10 03:35 140 5 gusting 8 23.3
2020-Jul-10 03:30 141 5 gusting 8 23.9
2020-Jul-10 03:25 140 5 gusting 8 23.9
2020-Jul-10 03:20 141 4 gusting 7 23.9
2020-Jul-10 03:15 142 5 gusting 7 23.9
2020-Jul-10 03:10 142 5 gusting 7 23.9
2020-Jul-10 03:05 141 4 gusting 7 23.9
2020-Jul-10 03:00 141 4 gusting 7 23.9
2020-Jul-10 02:55 142 4 gusting 9 23.9
2020-Jul-10 02:50 142 4 gusting 9 23.9
2020-Jul-10 02:45 142 5 gusting 7 23.9
2020-Jul-10 02:40 142 5 gusting 8 23.9
2020-Jul-10 02:35 142 5 gusting 8 23.9
2020-Jul-10 02:30 144 4 gusting 8 23.9
2020-Jul-10 02:25 144 4 gusting 7 23.9
2020-Jul-10 02:20 143 5 gusting 7 23.9
2020-Jul-10 02:15 143 5 gusting 7 23.9
2020-Jul-10 02:10 141 4 gusting 7 23.9
2020-Jul-10 02:05 141 4 gusting 6 23.9
2020-Jul-10 02:00 142 3 gusting 6 23.9